Location: *
(45.9500°N, 9.0833°E)
Time: 05:48:21
(UTC+00:00)

SR - Pass Details

Date: 18 June 2021
Orbit: 577 x 878 km, 66.7° (Epoch: 24 July)

Event Time Altitude Azimuth Distance (km) Brightness Sun altitude
Rises 14:46:40 0° 165° (SSE) 3,438 ? 43.8°
Reaches altitude 10° 14:49:50 10° 149° (SSE) 2,522 ? 43.3°
Maximum altitude 14:53:50 19° 106° (ESE) 1,956 ? 42.6°
Drops below altitude 10° 14:57:50 10° 62° (ENE) 2,522 ? 41.9°
Sets 15:00:58 0° 46° (NE) 3,439 ? 41.3°
